Home > Weather > Bocholt > Past weeks

Flag for Germany Weather for the Past 2 Weeks in Bocholt, North Rhine-Westphalia, Germany

Now
50 °F

Passing clouds.


Feels Like: 47 °F
Forecast: 43 / 50 °F
Wind: 8 mph from South

Location: Niederrhein

Current Time: Feb 6, 2016 at 2:02:45 AM

Latest Report: Feb 5, 2016 at 11:50 PM


Visibility: N/A

Pressure: 30.04 "Hg

Humidity: 88%

Dew point: 46 °F

Location of BocholtLocation

Historic Weather in Bocholt — Graph

°F

Bocholt Temperature Yesterday

Maximum temperature yesterday: 52 °F (at 12:50 PM)
Minimum temperature yesterday: 41 °F (at 4:50 AM)
Average temperature yesterday: 48 °F

High & Low Weather Summary for the Past Weeks

 TemperatureHumidityPressure
High57 °F (Jan 25, 1:20 PM)100% (Jan 22, 10:20 PM)30.54 "Hg (Jan 22, 10:20 PM)
Low28 °F (Jan 21, 11:50 PM)54% (Jan 25, 7:20 PM)29.71 "Hg (Jan 30, 12:20 PM)
Average46 °F84%30.11 "Hg
* Reported Jan 21 11:50 PM — Feb 5 11:50 PM, Bocholt, Weather by CustomWeather, © 2016

Note: Actual official high and low records may vary slightly from our data, if they occured in-between our weather recording intervals... More about our weather records

Advertising

Bocholt Weather History for the Previous 24 Hours

 ConditionsComfort  
Time TempWeatherWind HumidityBarometerVisibility
11:50 PM
Fri, Feb 5
50 °FPassing clouds.8 mph88%30.04 "HgN/A
11:20 PM50 °FPassing clouds.8 mph88%30.04 "HgN/A
10:50 PM50 °FPassing clouds.8 mph88%30.07 "HgN/A
10:20 PM50 °FPassing clouds.8 mph88%30.07 "HgN/A
9:50 PM50 °FPassing clouds.9 mph88%30.07 "HgN/A
9:20 PM50 °FPassing clouds.9 mph88%30.09 "HgN/A
8:50 PM50 °FPassing clouds.8 mph94%30.09 "HgN/A
8:20 PM50 °FPassing clouds.8 mph94%30.09 "HgN/A
7:50 PM50 °FPassing clouds.8 mph94%30.09 "Hg5 mi
7:20 PM50 °FPassing clouds.9 mph94%30.12 "Hg5 mi
6:50 PM50 °FPassing clouds.9 mph88%30.12 "Hg6 mi
6:20 PM50 °FPartly sunny.9 mph88%30.12 "HgN/A
5:50 PM50 °FPartly sunny.8 mph88%30.12 "HgN/A
5:20 PM50 °FBroken clouds.10 mph88%30.12 "HgN/A
4:50 PM50 °FBroken clouds.13 mph88%30.15 "HgN/A
4:20 PM50 °FPartly sunny.12 mph88%30.15 "HgN/A
3:50 PM52 °FPartly sunny.10 mph82%30.15 "HgN/A
3:20 PM52 °FPartly sunny.12 mph82%30.15 "HgN/A
2:50 PM52 °FPartly sunny.10 mph82%30.15 "HgN/A
2:20 PM52 °FPartly sunny.12 mph82%30.15 "HgN/A
1:50 PM52 °FPartly sunny.12 mph82%30.18 "HgN/A
1:20 PM52 °FPartly sunny.13 mph82%30.18 "HgN/A
12:50 PM52 °FPartly sunny.12 mph88%30.18 "HgN/A
12:20 PM50 °FPartly sunny.12 mph94%30.21 "Hg6 mi
11:50 AM50 °FPartly sunny.10 mph94%30.21 "Hg5 mi
11:20 AM50 °FPartly sunny.12 mph94%30.21 "Hg4 mi
10:50 AM48 °FDrizzle. Fog.10 mph94%30.21 "Hg1 mi
10:20 AM48 °FDrizzle. Fog.9 mph94%30.21 "Hg1 mi
9:50 AM46 °FFog.10 mph100%30.21 "Hg1 mi
9:20 AM46 °FFog.9 mph93%30.21 "Hg1 mi
8:50 AM45 °FFog.9 mph93%30.21 "Hg2 mi
8:20 AM45 °FFog.9 mph93%30.21 "Hg3 mi
7:50 AM43 °FPassing clouds.9 mph93%30.21 "Hg5 mi
7:20 AM43 °FPassing clouds.8 mph93%30.24 "Hg6 mi
6:50 AM43 °FPassing clouds.8 mph87%30.21 "Hg5 mi
6:20 AM41 °FPassing clouds.7 mph93%30.24 "Hg4 mi
5:50 AM41 °FPassing clouds.6 mph93%30.24 "Hg4 mi
5:20 AM41 °FPassing clouds.3 mph93%30.24 "Hg4 mi
4:50 AM41 °FPassing clouds.5 mph93%30.27 "Hg4 mi
Weather by CustomWeather, © 2016

See weather overviewHow to use our weather pages